Date String (YYYY-MM-DD hh:mm:ss) UTC,Instrument flags,Ambient pressure (hPa),Sample flow (lpm),Bypass flow (lpm),Sample temperature (°C),Ambient temperature (°C),ASC tube jacket temperature (°C),LED temperature (°C),Box temperature (°C),Sample RH (%),Span deviation,Mass concentration (μg/m³),Mass concentration (μg/m³),Mass concentration (μg/m³)
DateTimeUTC,F1_M11,P_M11,Q1_M11,Q2_M11,T1_M11,T2_M11,T3_M11,T4_M11,T5_M11,U1_M11,ZSPAN_M11,X2_M11,X0_M11,X1_M11
2023-05-28 23:00:00,,0827.7,5.00,0.00,29.3,27.1,00.0,37.6,30.9,27.1,0000.0,0003.99,0009.66,0003.26
2023-05-28 23:01:00,,0827.6,5.00,0.00,29.3,27.3,00.0,37.7,31.0,27.5,0000.0,0004.00,0009.41,0003.27
2023-05-28 23:02:00,,0827.6,5.00,0.00,29.3,27.5,00.0,37.7,31.0,27.1,0000.0,0004.03,0009.12,0003.27
2023-05-28 23:03:00,,0827.6,5.00,0.00,29.4,27.6,00.0,37.7,31.0,26.8,0000.0,0004.04,0009.00,0003.27
2023-05-28 23:04:00,,0827.6,4.99,0.00,29.4,27.7,00.0,37.7,31.1,26.4,0000.0,0004.04,0008.96,0003.27
2023-05-28 23:05:00,,0827.7,5.00,0.00,29.4,27.8,00.0,37.7,31.1,27.0,0000.0,0004.02,0008.52,0003.27
2023-05-28 23:06:00,,0827.7,5.00,0.00,29.4,27.9,00.0,37.7,31.1,26.8,0000.0,0004.03,0008.28,0003.27
2023-05-28 23:07:00,,0827.6,5.00,0.00,29.4,28.0,00.0,37.7,31.2,25.7,0000.0,0004.05,0008.42,0003.26
2023-05-28 23:08:00,,0827.7,5.00,0.00,29.5,28.1,00.0,37.7,31.2,25.3,0000.0,0004.07,0008.58,0003.25
2023-05-28 23:09:00,,0827.7,5.00,0.00,29.5,28.1,00.0,37.8,31.2,24.6,0000.0,0004.10,0008.81,0003.25
2023-05-28 23:10:00,,0827.7,5.00,0.00,29.5,28.2,00.0,37.8,31.2,24.4,0000.0,0004.15,0008.98,0003.25
2023-05-28 23:11:00,,0827.7,5.01,0.00,29.5,28.2,00.0,37.8,31.2,24.6,0000.0,0004.15,0009.10,0003.23
2023-05-28 23:12:00,,0827.7,5.00,0.00,29.6,28.1,00.0,37.8,31.3,25.4,0000.0,0004.15,0009.26,0003.21
2023-05-28 23:13:00,,0827.7,4.98,0.00,29.6,26.7,00.0,37.7,31.1,25.4,0000.0,0004.14,0009.15,0003.21
2023-05-28 23:14:00,,0827.8,5.00,0.00,29.5,25.7,00.0,37.7,30.9,24.1,0000.0,0004.12,0009.03,0003.21
2023-05-28 23:15:00,,0827.7,5.01,0.00,29.4,25.6,00.0,37.6,30.8,24.0,0000.0,0004.11,0009.05,0003.21
2023-05-28 23:16:00,,0827.7,5.00,0.00,29.3,25.9,00.0,37.6,30.7,24.2,0000.0,0004.14,0009.15,0003.23
2023-05-28 23:17:00,,0827.7,5.00,0.00,29.3,26.2,00.0,37.6,30.8,25.1,0000.0,0004.13,0009.00,0003.23
2023-05-28 23:18:00,,0827.7,5.00,0.00,29.3,26.6,00.0,37.6,30.8,25.8,0000.0,0004.14,0009.08,0003.23
2023-05-28 23:19:00,,0827.7,5.00,0.00,29.3,26.9,00.0,37.6,30.9,24.8,0000.0,0004.16,0009.14,0003.23
2023-05-28 23:20:00,,0827.7,4.99,0.00,29.3,27.1,00.0,37.7,30.9,23.9,0000.0,0004.16,0008.91,0003.21
2023-05-28 23:21:00,,0827.7,5.01,0.00,29.3,27.4,00.0,37.7,31.0,24.8,0000.0,0004.09,0008.73,0003.20
2023-05-28 23:22:00,,0827.7,5.01,0.00,29.3,27.5,00.0,37.7,31.0,24.2,0000.0,0004.08,0008.66,0003.19
2023-05-28 23:23:00,,0827.7,5.00,0.00,29.4,27.7,00.0,37.7,31.1,24.8,0000.0,0004.09,0008.30,0003.19
2023-05-28 23:24:00,,0827.7,4.99,0.00,29.4,27.8,00.0,37.7,31.1,25.3,0000.0,0004.02,0008.01,0003.17
2023-05-28 23:25:00,,0827.7,5.00,0.00,29.4,28.0,00.0,37.7,31.1,23.7,0000.0,0004.03,0008.11,0003.15
2023-05-28 23:26:00,,0827.7,5.00,0.00,29.4,28.1,00.0,37.7,31.2,23.0,0000.0,0004.04,0008.08,0003.14
2023-05-28 23:27:00,,0827.7,5.00,0.00,29.5,28.1,00.0,37.7,31.2,23.4,0000.0,0004.00,0008.00,0003.12
2023-05-28 23:28:00,,0827.7,5.01,0.00,29.5,28.2,00.0,37.8,31.2,23.8,0000.0,0003.98,0008.02,0003.10
2023-05-28 23:29:00,,0827.7,5.01,0.00,29.5,28.3,00.0,37.8,31.3,23.8,0000.0,0003.94,0007.81,0003.09
2023-05-28 23:30:00,,0827.7,5.00,0.00,29.6,28.3,00.0,37.8,31.3,25.1,0000.0,0003.91,0007.95,0003.05
2023-05-28 23:31:00,,0827.7,4.98,0.00,29.6,27.1,00.0,37.8,31.2,25.3,0000.0,0003.92,0008.15,0003.05
2023-05-28 23:32:00,,0827.7,5.01,0.00,29.5,25.8,00.0,37.7,31.0,24.6,0000.0,0003.97,0008.30,0003.06
2023-05-28 23:33:00,,0827.7,5.01,0.00,29.5,25.7,00.0,37.6,30.9,25.1,0000.0,0003.95,0008.22,0003.05
2023-05-28 23:34:00,,0827.7,5.00,0.00,29.4,26.0,00.0,37.6,30.8,25.3,0000.0,0003.94,0008.20,0003.05
2023-05-28 23:35:00,,0827.7,5.00,0.00,29.3,26.3,00.0,37.6,30.9,24.6,0000.0,0003.92,0008.13,0003.05
2023-05-28 23:36:00,,0827.7,5.01,0.00,29.3,26.6,00.0,37.7,30.9,25.8,0000.0,0003.89,0008.05,0003.04
2023-05-28 23:37:00,,0827.7,4.99,0.00,29.3,26.9,00.0,37.7,30.9,24.6,0000.0,0003.87,0008.37,0003.04
2023-05-28 23:38:00,,0827.7,4.99,0.00,29.3,27.2,00.0,37.7,31.0,24.7,0000.0,0003.91,0008.66,0003.05
2023-05-28 23:39:00,,0827.7,5.00,0.00,29.4,27.4,00.0,37.7,31.0,24.6,0000.0,0003.94,0008.69,0003.05
2023-05-28 23:40:00,,0827.7,4.99,0.00,29.4,27.5,00.0,37.7,31.1,25.2,0000.0,0003.91,0008.59,0003.03
2023-05-28 23:41:00,,0827.7,5.00,0.00,29.4,27.7,00.0,37.7,31.1,24.1,0000.0,0003.90,0008.34,0003.02
2023-05-28 23:42:00,,0827.7,5.01,0.00,29.4,27.8,00.0,37.7,31.1,24.5,0000.0,0003.89,0008.10,0003.03
2023-05-28 23:43:00,,0827.7,5.00,0.00,29.4,27.9,00.0,37.7,31.1,24.3,0000.0,0003.82,0007.88,0003.03
2023-05-28 23:44:00,,0827.7,4.99,0.00,29.5,28.0,00.0,37.7,31.2,24.5,0000.0,0003.86,0007.98,0003.03
2023-05-28 23:45:00,,0827.7,4.99,0.00,29.5,28.1,00.0,37.8,31.2,24.0,0000.0,0003.85,0007.94,0003.01
2023-05-28 23:46:00,,0827.7,5.00,0.00,29.5,28.2,00.0,37.8,31.2,24.0,0000.0,0003.87,0007.98,0003.00
2023-05-28 23:47:00,,0827.7,5.00,0.00,29.5,28.2,00.0,37.8,31.3,22.7,0000.0,0003.88,0007.96,0003.01
2023-05-28 23:48:00,,0827.7,5.01,0.00,29.6,28.3,00.0,37.8,31.3,23.0,0000.0,0003.90,0007.62,0003.00
2023-05-28 23:49:00,,0827.7,4.99,0.00,29.6,27.3,00.0,37.8,31.2,24.1,0000.0,0003.85,0007.31,0002.98
2023-05-28 23:50:00,,0827.7,5.00,0.00,29.5,26.0,00.0,37.7,31.0,23.5,0000.0,0003.82,0007.28,0002.99
2023-05-28 23:51:00,,0827.7,5.00,0.00,29.5,25.8,00.0,37.6,30.9,22.8,0000.0,0003.84,0007.37,0003.00
2023-05-28 23:52:00,,0827.8,5.01,0.00,29.4,26.0,00.0,37.6,30.8,22.8,0000.0,0003.86,0007.37,0003.03
2023-05-28 23:53:00,,0827.7,5.01,0.00,29.4,26.3,00.0,37.7,30.8,23.0,0000.0,0003.86,0007.76,0003.04
2023-05-28 23:54:00,,0827.7,4.99,0.00,29.4,26.6,00.0,37.7,30.9,23.9,0000.0,0003.88,0007.85,0003.03
2023-05-28 23:55:00,,0827.7,5.00,0.00,29.3,26.9,00.0,37.7,30.9,23.7,0000.0,0003.85,0007.81,0003.04
2023-05-28 23:56:00,,0827.7,5.01,0.00,29.4,27.2,00.0,37.7,31.0,23.9,0000.0,0003.88,0007.90,0003.07
2023-05-28 23:57:00,,0827.7,5.00,0.00,29.4,27.4,00.0,37.7,31.0,24.5,0000.0,0003.91,0007.96,0003.10
2023-05-28 23:58:00,,0827.7,5.00,0.00,29.4,27.6,00.0,37.7,31.1,25.9,0000.0,0003.92,0007.97,0003.10
2023-05-28 23:59:00,,0827.7,5.00,0.00,29.4,27.7,00.0,37.7,31.1,26.0,0000.0,0003.94,0008.07,0003.11
